Location: D�derode
(51.8092°N, 10.1065°E)
Time: 05:46:54
(UTC+00:00)

Cosmos 1869 Rocket - Pass Details

Date: 16 April 2021
Orbit: 604 x 634 km, 82.5° (Epoch: 11 May)

Event Time Altitude Azimuth Distance (km) Brightness Sun altitude
Rises 02:02:28 0° 333° (NNW) 2,906 7.3 -18.8°
Reaches altitude 10° 02:05:54 10° 305° (NW) 1,986 6.1 -18.4°
Enters shadow 02:07:06 12° 289° (WNW) 1,834 5.7 -18.3°
